Location: Unspecified
(39.0670°S, 0.0000°E)
Time: 16:13:05
(UTC+00:00)

ISS - Pass Details

Date: 25 June 2019
Orbit: 409 x 418 km, 51.6° (Epoch: 20 July)

Event Time Altitude Azimuth Distance (km) Brightness Sun altitude
Rises 18:34:18 0° 282° (WNW) 2,380 1.7 -20.4°
Reaches altitude 10° 18:36:35 10° 270° (W) 1,521 0.2 -20.8°
Maximum altitude 18:39:36 28° 208° (SSW) 839 -2.2 -21.4°
Enters shadow 18:39:48 28° 201° (SSW) 844 -2.2 -21.4°
